Location: Unspecified
(48.5670°N, 0.0000°E)
Time: 05:23:11
(UTC+00:00)

SR - All Passes

Search period start: 23 August 2019 00:00
Search period end: 02 September 2019 00:00
Orbit: 578 x 878 km, 66.7° (Epoch: 21 August)

Date Brightness Start Highest point End Pass type
(mag) Time Alt. Az. Time Alt. Az. Time Alt. Az.
23 Aug - 12:27:13 10° SSW 12:31:39 69° ESE 12:36:31 10° NE daylight
23 Aug - 14:10:24 10° W 14:14:14 25° NW 14:18:21 10° NNE daylight
23 Aug - 15:56:51 10° NNW 15:58:14 11° N 15:59:37 10° N daylight
23 Aug - 17:40:36 10° N 17:42:45 12° NNE 17:44:58 10° NE daylight
23 Aug - 19:21:50 10° NNW 19:26:33 30° NE 19:31:33 10° E visible
23 Aug - 21:03:37 10° NW 21:09:04 68° WSW 21:14:51 10° SSE visible
23 Aug - 22:48:06 10° W 22:50:19 12° WSW 22:52:33 10° SW visible
24 Aug - 11:38:10 10° S 11:42:13 35° ESE 11:46:35 10° NE daylight
24 Aug - 13:19:56 10° WSW 13:24:14 39° NW 13:28:54 10° NNE daylight
24 Aug - 15:05:24 10° NW 15:07:48 13° NNW 15:10:17 10° N daylight
24 Aug - 16:51:11 10° N 16:52:17 11° N 16:53:23 10° NNE daylight
24 Aug - 18:32:26 10° NNW 18:36:27 21° NNE 18:40:40 10° E daylight
24 Aug - 20:13:57 10° NNW 20:19:25 73° NE 20:25:13 10° SE visible
24 Aug - 21:56:48 10° WNW 22:01:06 23° WSW 22:05:33 10° SSW visible
25 Aug - 10:49:57 10° SSE 10:52:59 18° ESE 10:56:09 10° ENE daylight
25 Aug - 12:29:53 10° SW 12:34:24 68° NW 12:39:21 10° NNE daylight
25 Aug - 14:14:14 10° WNW 14:17:29 18° NNW 14:20:56 10° NNE daylight
25 Aug - 16:01:06 10° N 16:01:45 10° N 16:02:26 10° N daylight
25 Aug - 17:43:03 10° NNW 17:46:11 15° NNE 17:49:26 10° ENE daylight
25 Aug - 19:24:24 10° NNW 19:29:37 45° NE 19:35:08 10° ESE visible
25 Aug - 21:06:34 10° NW 21:11:44 41° WSW 21:17:08 10° S visible
26 Aug - 11:40:20 10° SSW 11:44:46 65° ESE 11:49:38 10° NE daylight
26 Aug - 13:23:24 10° W 13:27:18 26° NW 13:31:31 10° NNE daylight
26 Aug - 15:09:42 10° NNW 15:11:16 11° N 15:12:51 10° N daylight
26 Aug - 16:53:41 10° N 16:55:48 12° NNE 16:57:58 10° NE daylight
26 Aug - 18:34:56 10° NNW 18:39:39 29° NE 18:44:37 10° E daylight
26 Aug - 20:16:43 10° NW 20:22:13 71° WSW 20:28:00 10° SSE visible
26 Aug - 22:00:56 10° WNW 22:03:29 13° WSW 22:06:05 10° SW visible
27 Aug - 10:51:20 10° S 10:55:21 33° ESE 10:59:41 10° NE daylight
27 Aug - 12:32:57 10° WSW 12:37:18 40° NW 12:42:03 10° NNE daylight
27 Aug - 14:18:19 10° NW 14:20:51 14° NNW 14:23:29 10° N daylight
27 Aug - 16:04:12 10° N 16:05:19 11° N 16:06:27 10° NNE daylight
27 Aug - 17:45:32 10° NNW 17:49:32 21° NNE 17:53:42 10° E daylight
27 Aug - 19:27:03 10° NNW 19:32:33 70° NE 19:38:21 10° SE visible
27 Aug - 21:09:50 10° WNW 21:14:16 24° WSW 21:18:51 10° SSW visible
28 Aug - 10:03:13 10° SSE 10:06:07 17° ESE 10:09:10 10° ENE daylight
28 Aug - 11:42:57 10° SW 11:47:29 72° NW 11:52:29 10° NNE daylight
28 Aug - 13:27:10 10° WNW 13:30:32 19° NNW 13:34:06 10° NNE daylight
28 Aug - 15:13:56 10° NNW 15:14:48 10° N 15:15:41 10° N daylight
28 Aug - 16:56:09 10° NNW 16:59:15 15° NNE 17:02:27 10° ENE daylight
28 Aug - 18:37:31 10° NNW 18:42:43 43° NE 18:48:13 10° ESE daylight
28 Aug - 20:19:39 10° NW 20:24:53 43° WSW 20:30:22 10° S visible
29 Aug - 10:53:26 10° SSW 10:57:53 61° ESE 11:02:45 10° NE daylight
29 Aug - 12:36:23 10° W 12:40:23 27° NW 12:44:41 10° NNE daylight
29 Aug - 14:22:35 10° NNW 14:24:18 12° NNW 14:26:05 10° N daylight
29 Aug - 16:06:45 10° N 16:08:51 12° NNE 16:11:00 10° NE daylight
29 Aug - 17:48:04 10° NNW 17:52:45 28° NE 17:57:40 10° E daylight
29 Aug - 19:29:49 10° NW 19:35:21 75° WSW 19:41:11 10° SSE visible
29 Aug - 21:13:49 10° WNW 21:16:40 14° WSW 21:19:33 10° SW visible
30 Aug - 10:04:30 10° S 10:08:28 31° ESE 10:12:46 10° NE daylight
30 Aug - 11:45:59 10° WSW 11:50:23 43° NW 11:55:12 10° NNE daylight
30 Aug - 13:31:14 10° NW 13:33:53 14° NNW 13:36:40 10° NNE daylight
30 Aug - 15:17:11 10° N 15:18:22 11° N 15:19:33 10° NNE daylight
30 Aug - 16:58:39 10° NNW 17:02:36 20° NNE 17:06:43 10° ENE daylight
30 Aug - 18:40:10 10° NNW 18:45:40 67° NE 18:51:29 10° SE daylight
30 Aug - 20:22:52 10° NW 20:27:25 26° WSW 20:32:08 10° SSW visible
31 Aug - 09:16:29 10° SE 09:19:17 16° ESE 09:22:11 10° ENE daylight
31 Aug - 10:56:01 10° SW 11:00:36 76° NW 11:05:38 10° NNE daylight
31 Aug - 12:40:08 10° WNW 12:43:36 19° NNW 12:47:17 10° NNE daylight
31 Aug - 14:26:47 10° NNW 14:27:51 11° N 14:28:55 10° N daylight
31 Aug - 16:09:15 10° NNW 16:12:19 15° NNE 16:15:28 10° ENE daylight
31 Aug - 17:50:38 10° NNW 17:55:50 41° NE 18:01:18 10° ESE daylight
31 Aug - 19:32:43 10° NW 19:38:02 45° WSW 19:43:34 10° S visible
01 Sep - 10:06:34 10° SSW 10:11:00 58° ESE 10:15:53 10° NE daylight
01 Sep - 11:49:22 10° W 11:53:27 28° NW 11:57:51 10° NNE daylight
01 Sep - 13:35:28 10° NW 13:37:21 12° NNW 13:39:17 10° N daylight
01 Sep - 15:19:49 10° N 15:21:54 12° NNE 15:24:01 10° NE daylight
01 Sep - 17:01:11 10° NNW 17:05:50 28° NE 17:10:42 10° E daylight
01 Sep - 18:42:54 10° NW 18:48:29 78° WSW 18:54:20 10° SSE daylight
01 Sep - 20:26:44 10° WNW 20:29:50 15° WSW 20:32:59 10° SW visible
